XE2WR-3 Weather Reports


time (UTC)temp
C
wind
direction
speed
KPH
gust
KPH
rain 1hr
cm
rain 24hr
cm
rain mn
cm
humidity
%
barometer
mb
20260508161516 23 93 3.2 9.7 0.00 2.39 0.00 79 1011.2
20260508160010 23 207 1.6 6.4 0.00 2.39 0.00 79 1011.2
20260508154510 23 139 1.6 4.8 0.00 2.39 0.00 80 1011.4
20260508153008 22 245 0.0 1.6 0.00 2.39 0.00 78 1011.5
20260508151521 22 245 0.0 3.2 0.00 2.39 0.00 77 1011.8
20260508150010 22 252 1.6 4.8 0.00 2.39 0.00 78 1012.0
20260508144506 23 77 0.0 1.6 0.00 2.39 0.00 80 1011.9
20260508143002 23 76 0.0 1.6 0.00 2.39 0.00 79 1011.9
20260508141559 22 76 0.0 4.8 0.00 2.39 0.00 75 1011.8
20260508140111 22 76 1.6 6.4 0.00 2.39 0.00 75 1011.7
20260508134616 22 37 3.2 6.4 0.00 2.39 0.00 64 1011.8
20260508133104 21 70 3.2 8.0 0.00 2.39 0.00 54 1011.7
20260508131548 21 70 0.0 6.4 0.00 2.39 0.00 34 1011.8
20260508130047 21 70 0.0 6.4 0.00 2.39 0.00 34 1011.7
20260508124546 20 70 0.0 4.8 0.00 2.39 0.00 34 1011.8
20260508123047 20 70 3.2 6.4 0.00 2.39 0.00 29 1011.6
20260508121545 20 72 1.6 6.4 0.00 2.39 0.00 28 1011.5
20260508120051 20 65 3.2 8.0 0.00 2.39 0.00 29 1011.5
20260508114544 20 98 1.6 9.7 0.00 2.39 0.00 30 1011.4
20260508113053 20 75 6.4 11.3 0.00 2.39 0.00 30 1011.5
20260508111542 20 80 8.0 14.5 0.00 2.39 0.00 35 1011.5
20260508110041 20 63 4.8 8.0 0.00 2.39 0.00 32 1011.7
20260508104541 20 53 1.6 6.4 0.00 2.39 0.00 28 1011.8
20260508103041 20 58 0.0 4.8 0.00 2.39 0.00 34 1011.6
20260508101546 20 61 1.6 6.4 0.00 2.39 0.00 33 1011.6
20260508100039 20 29 4.8 9.7 0.00 2.39 0.00 26 1011.8
20260508094538 20 38 4.8 16.1 0.00 2.39 0.00 25 1011.9
20260508093037 20 70 4.8 14.5 0.00 2.39 0.00 25 1011.3
20260508091603 21 63 9.7 17.7 0.00 2.39 0.00 29 1011.3
20260508090030 21 80 11.3 17.7 0.00 2.39 0.00 34 1011.8
20260508084531 21 72 12.9 17.7 0.00 2.39 0.00 36 1012.2
20260508083032 21 110 12.9 19.3 0.00 2.39 0.00 31 1012.1
20260508081523 21 79 11.3 16.1 0.00 2.39 0.00 36 1012.1
20260508080020 21 76 4.8 8.0 0.00 2.39 0.00 38 1012.2
20260508074519 21 75 4.8 9.7 0.00 2.39 0.00 39 1012.3
20260508073015 21 81 4.8 8.0 0.00 2.39 0.00 35 1012.6
20260508071514 21 68 6.4 9.7 0.00 2.39 0.00 32 1012.7
20260508070011 21 58 6.4 11.3 0.00 2.39 0.00 32 1013.1
20260508064514 21 65 1.6 9.7 0.00 2.39 0.00 31 1013.3
20260508063004 21 65 1.6 8.0 0.00 2.39 0.00 30 1013.5
20260508061502 21 63 8.0 12.9 0.00 2.39 0.00 31 1014.0
20260508060058 21 63 11.3 20.9 0.00 2.39 0.00 30 1014.3
20260508054556 21 58 11.3 19.3 0.00 2.39 2.39 38 1014.3
20260508053101 21 74 9.7 14.5 0.00 2.39 2.39 50 1014.2
20260508051618 21 75 9.7 16.1 0.00 2.39 2.39 53 1014.1
20260508050054 21 61 14.5 25.7 0.00 2.39 2.39 49 1014.0
20260508044551 21 64 8.0 17.7 0.00 2.39 2.39 59 1014.0
20260508043049 21 97 8.0 19.3 0.00 2.39 2.39 46 1013.6
20260508041548 20 61 8.0 12.9 0.00 2.39 2.39 13 1013.1
20260508040046 20 65 6.4 12.9 0.00 2.39 2.39 14 1012.7
20260508034546 20 61 9.7 17.7 0.00 2.39 2.39 14 1012.6
20260508033049 20 82 4.8 14.5 0.00 2.39 2.39 14 1012.6
20260508031643 19 96 4.8 11.3 0.00 2.39 2.39 16 1012.6
20260508030046 19 93 3.2 14.5 0.00 2.39 2.39 17 1012.9
20260508024540 19 73 3.2 9.7 0.00 2.39 2.39 17 1012.8
20260508023039 19 150 6.4 14.5 0.08 2.39 2.39 18 1013.0
20260508021543 19 63 9.7 16.1 0.71 2.39 2.39 18 1013.1
20260508020036 20 147 11.3 19.3 1.37 2.39 2.39 17 1012.6
20260508014532 20 135 8.0 14.5 2.13 2.39 2.39 19 1012.4
20260508013029 20 148 9.7 19.3 2.18 2.31 2.31 24 1012.9
20260508011531 21 114 14.5 30.6 1.65 1.65 1.65 36 1012.5
20260508010035 22 103 6.4 9.7 0.99 0.99 0.99 59 1011.3
20260508004516 22 75 4.8 12.9 0.25 0.25 0.25 73 1011.6
20260508003013 23 29 4.8 14.5 0.13 0.13 0.13 79 1011.1
20260508001514 26 36 6.4 14.5 0.00 0.00 0.00 77 1011.0
20260508000010 26 58 6.4 17.7 0.00 0.00 0.00 77 1010.9
20260507234510 26 79 6.4 11.3 0.00 0.00 0.00 77 1010.6
20260507233009 26 90 8.0 12.9 0.00 0.00 0.00 77 1010.6
20260507231509 26 117 4.8 14.5 0.00 0.00 0.00 78 1010.6
20260507230018 26 65 12.9 17.7 0.00 0.00 0.00 77 1009.9
20260507224509 27 110 12.9 24.1 0.00 0.00 0.00 75 1009.6
20260507223006 27 71 9.7 20.9 0.00 0.00 0.00 71 1009.5
20260507221505 27 53 19.3 27.4 0.00 0.00 0.00 72 1009.7
20260507220003 28 96 12.9 24.1 0.00 0.00 0.00 72 1010.1
20260507214502 28 61 12.9 32.2 0.00 0.00 0.00 72 1010.2
20260507213004 28 115 22.5 27.4 0.00 0.00 0.00 73 1010.0
20260507211501 28 67 19.3 27.4 0.00 0.00 0.00 75 1010.1
20260507210104 27 49 12.9 24.1 0.00 0.00 0.00 78 1010.3
20260507204557 28 87 14.5 30.6 0.00 0.00 0.00 70 1010.3
20260507203057 28 110 16.1 24.1 0.00 0.00 0.00 70 1010.3
20260507201609 28 65 16.1 24.1 0.00 0.00 0.00 72 1010.3
20260507200107 28 86 14.5 24.1 0.00 0.00 0.00 73 1010.7
20260507194549 28 72 17.7 25.7 0.00 0.00 0.00 69 1010.9
20260507193050 28 82 9.7 17.7 0.00 0.00 0.00 73 1011.3
20260507191547 28 82 16.1 24.1 0.00 0.00 0.00 71 1011.6
20260507190050 29 89 9.7 20.9 0.00 0.00 0.00 69 1011.5
20260507184545 28 60 14.5 20.9 0.00 0.00 0.00 68 1011.8
20260507183044 29 69 11.3 22.5 0.00 0.00 0.00 69 1011.9
20260507181542 28 32 12.9 20.9 0.00 0.00 0.00 71 1012.1
20260507180040 28 72 9.7 19.3 0.00 0.00 0.00 72 1012.4
20260507174548 27 115 16.1 24.1 0.00 0.00 0.00 75 1012.7
20260507173038 27 65 9.7 20.9 0.00 0.00 0.00 76 1012.9
20260507171538 27 57 8.0 17.7 0.00 0.00 0.00 75 1013.0
20260507170037 27 72 8.0 25.7 0.00 0.00 0.00 77 1012.9
20260507164534 27 63 12.9 17.7 0.00 0.00 0.00 78 1013.1
20260507163032 27 155 4.8 14.5 0.00 0.00 0.00 79 1013.3